Theta_e
353 355 355 355 355 355 355 356 355 356 355 355 354 354 354 356 354 355 359 359 360 360 361 363 364 363 363 365 364 367 369 368 369 370 369 369 369 369 368 369 367 365 368 367 366 368 368 366 366 367 368 365 364 363 361 364 367 366 365 363 359 360 358 358 354 355 362 365 360 360 363 366 361 370 367 365 367 370 367 374 377 372 368 369 369
353 354 355 355 354 355 355 355 355 355 354 354 353 353 353 354 355 356 355 357 359 358 360 361 363 363 362 364 366 366 369 370 367 368 368 367 368 366 366 368 368 367 368 367 369 367 368 367 366 366 369 366 364 362 362 359 360 361 365 362 361 362 362 358 357 356 356 363 365 367 365 367 361 370 368 366 365 369 369 371 368 368 367 368 367
352 355 355 355 355 354 354 354 354 354 353 352 351 351 352 353 355 354 352 353 357 357 358 358 362 364 362 364 366 366 368 368 367 367 367 367 366 364 364 366 366 364 365 366 365 367 366 366 364 366 366 365 366 363 362 362 361 362 362 363 363 363 365 363 359 357 357 359 365 361 362 366 365 365 368 367 369 371 372 369 365 366 369 368 366
351 354 354 354 354 355 354 354 352 352 351 351 351 351 351 352 353 352 352 352 353 357 358 358 361 363 361 363 364 365 366 366 366 367 367 367 367 367 367 367 365 365 364 364 363 365 363 364 362 363 365 365 365 365 365 364 364 365 364 365 366 364 366 367 365 361 360 357 362 363 363 363 364 367 368 368 367 369 369 369 370 368 366 365 365
351 352 352 352 352 353 353 353 352 351 351 351 351 351 351 350 351 351 351 350 351 353 357 359 360 361 358 360 362 363 364 365 366 364 365 366 366 365 366 367 366 366 365 365 364 365 364 362 361 363 366 364 363 363 363 365 365 364 362 364 365 364 366 366 366 366 362 359 360 365 368 366 367 369 368 364 365 368 372 372 366 366 369 365 363
351 351 351 350 352 352 353 352 351 351 351 351 351 351 351 350 350 350 351 350 351 351 353 355 356 359 359 359 361 363 365 365 366 365 364 365 366 365 365 366 364 365 366 364 365 366 364 364 363 364 363 361 360 362 365 364 365 363 363 364 364 365 365 366 367 366 365 362 362 361 366 362 363 366 368 366 363 361 363 368 371 369 369 365 363
351 351 351 350 352 352 352 352 352 351 351 351 351 351 350 350 350 349 350 350 350 349 350 353 356 357 359 359 359 362 364 363 365 366 365 365 365 365 362 364 364 365 364 363 363 364 364 364 365 365 364 364 362 362 364 365 362 362 364 365 365 364 363 364 365 364 363 362 362 363 362 364 364 359 366 369 367 365 362 361 362 369 370 367 365
351 352 351 351 352 352 352 353 353 353 352 353 352 351 350 350 351 351 351 350 348 349 349 350 354 355 357 358 360 362 363 363 365 366 365 364 364 364 363 363 362 362 363 363 363 361 362 363 362 364 365 366 365 365 365 363 365 363 364 366 365 364 362 362 363 362 361 360 359 357 359 361 363 365 367 368 365 365 368 362 358 361 364 370 367
351 350 351 351 353 354 354 354 354 354 353 353 352 351 350 351 351 351 352 351 349 349 349 349 351 353 354 357 358 359 359 360 361 363 364 364 363 361 363 362 362 362 363 361 362 363 362 361 361 362 367 367 364 363 363 364 364 364 366 367 365 364 363 362 362 361 361 360 359 361 360 360 361 362 360 361 360 358 363 365 362 363 366 364 368
349 348 349 351 353 355 356 355 354 355 354 353 353 352 350 350 349 350 350 350 351 352 351 350 349 350 352 355 357 357 357 359 356 346 349 362 363 359 361 363 363 361 362 362 360 361 361 361 360 366 362 360 358 355 350 351 354 360 364 368 366 364 363 362 361 361 360 358 356 356 355 354 354 358 359 361 363 366 363 365 363 363 365 365 366
348 349 349 351 353 355 356 355 355 354 355 354 354 353 351 350 350 350 350 350 351 353 352 350 349 348 349 350 352 352 354 354 342 335 335 340 356 361 360 362 364 363 361 362 361 359 361 363 363 365 365 361 360 350 349 346 347 347 350 357 363 366 363 361 361 361 359 358 357 358 355 356 357 359 359 359 362 362 362 364 362 362 360 358 355
347 349 349 352 354 355 354 355 355 355 355 354 354 354 352 351 351 351 349 348 352 350 349 350 351 350 349 349 349 350 352 344 332 331 332 332 340 356 357 358 357 359 360 358 359 360 359 360 362 363 365 366 366 368 358 348 343 344 344 345 348 352 354 361 362 361 362 360 358 357 356 356 358 361 358 357 362 363 366 365 364 361 360 358 358
347 349 349 352 354 355 355 355 355 355 355 354 355 355 353 352 351 349 347 348 348 349 349 348 349 350 349 350 348 349 350 339 330 328 329 329 329 341 352 354 354 354 356 359 358 360 362 362 361 363 362 363 364 365 369 368 349 341 342 343 344 343 339 339 345 361 362 362 361 359 359 360 360 361 363 363 366 363 363 361 364 364 363 359 359
347 348 351 353 354 354 355 355 354 355 356 356 355 354 353 352 350 349 349 350 349 348 347 348 348 350 349 349 350 349 349 340 328 326 326 326 327 333 351 351 354 355 356 357 358 360 363 363 362 362 365 366 366 365 366 368 369 366 361 360 361 359 346 337 336 337 348 359 360 360 364 367 362 364 367 369 365 361 360 360 364 363 361 360 364
354 350 352 352 353 354 355 355 355 355 356 356 355 354 353 353 351 350 349 349 349 350 348 347 348 350 348 348 348 347 346 334 326 324 323 323 325 330 350 351 352 354 356 358 360 361 362 363 363 361 364 366 366 365 365 366 367 366 366 364 364 364 365 362 360 358 358 358 360 362 364 367 368 369 369 370 369 367 366 365 365 365 364 365 364
354 354 352 351 351 354 354 355 355 356 356 355 355 354 354 355 353 352 351 349 350 350 351 349 349 349 348 348 346 346 347 330 325 323 321 322 324 341 349 353 353 353 355 358 360 363 363 363 363 363 363 365 360 346 354 365 365 364 363 363 363 364 363 361 347 350 362 363 363 363 363 363 353 368 368 366 367 369 368 365 363 362 360 358 356
337 342 353 352 353 355 355 354 354 354 355 354 354 354 354 355 355 355 352 351 349 349 350 349 351 350 349 349 348 348 348 336 323 320 320 320 325 346 350 352 354 354 355 358 360 362 363 363 364 362 363 365 353 335 336 350 362 362 362 361 361 360 360 363 345 335 336 334 333 335 334 334 333 330 329 330 352 357 362 357 357 361 358 354 355
333 336 341 351 358 357 357 356 355 354 355 355 354 354 354 355 355 356 353 351 350 350 352 351 352 352 350 349 349 349 349 341 322 318 318 318 330 348 351 352 353 355 356 358 359 362 363 359 363 363 362 363 343 332 331 346 360 360 361 359 359 359 360 361 359 357 332 329 329 329 330 331 331 330 330 329 328 340 357 353 357 358 355 356 352
332 332 336 343 353 360 358 357 356 354 354 355 354 355 355 355 356 356 355 353 353 354 354 353 352 353 352 351 347 348 350 343 322 319 317 316 329 349 352 352 352 354 355 356 359 359 361 359 357 356 358 355 336 330 328 342 359 360 361 360 357 358 359 361 361 361 364 361 359 355 351 342 347 352 354 336 334 341 354 358 359 357 355 356 356
331 333 335 339 345 354 361 361 359 356 354 356 356 356 358 358 358 357 356 355 354 353 353 354 353 353 353 352 351 350 350 352 347 318 316 315 318 347 353 351 351 352 354 354 355 358 359 361 357 336 333 333 331 325 324 326 355 361 361 359 358 357 361 363 364 363 365 363 364 364 364 365 365 364 363 362 355 350 352 357 360 360 359 358 358
331 332 333 335 339 344 352 359 360 359 358 358 358 358 358 358 358 358 355 355 355 354 354 354 353 354 354 354 353 353 352 352 352 319 315 314 315 326 351 352 352 353 354 354 354 354 357 358 359 342 327 326 325 321 320 319 332 360 362 360 361 361 357 363 363 363 362 363 363 362 362 363 364 363 362 364 362 360 355 356 359 362 362 359 357
331 331 331 333 337 340 345 350 356 358 361 361 360 360 361 360 360 359 357 357 357 356 357 356 354 354 355 355 355 355 353 344 355 327 316 314 313 315 343 351 352 353 353 354 354 354 355 357 361 347 326 323 322 319 316 318 319 352 362 336 334 333 360 361 362 361 361 361 360 359 361 361 360 361 360 360 360 360 363 362 361 362 363 363 360
330 331 333 335 337 340 343 346 349 354 358 360 359 358 359 359 359 361 361 359 358 358 358 357 356 355 355 356 357 357 358 356 333 348 319 313 312 312 321 338 333 355 352 352 354 354 357 359 361 347 326 318 317 317 317 316 320 338 329 327 327 328 341 357 359 359 359 358 358 357 358 358 359 359 359 360 362 364 363 366 367 365 364 364 364
330 331 333 335 338 340 342 345 346 349 353 356 358 357 358 359 359 357 359 358 356 356 357 357 356 355 354 355 357 357 360 359 343 331 337 313 313 311 313 318 327 347 353 352 354 356 357 359 356 334 322 314 313 315 316 318 333 322 319 322 325 331 350 355 354 357 356 354 353 355 356 359 360 360 360 363 362 367 368 368 368 367 367 366 367
329 330 332 334 337 340 342 344 346 348 347 349 352 354 355 350 348 352 357 357 357 355 354 355 354 354 354 354 356 358 359 359 360 344 328 320 313 311 312 314 317 322 348 353 355 356 342 332 330 325 322 316 314 315 317 317 316 320 319 319 329 346 350 352 355 357 353 352 353 354 356 359 362 363 366 368 368 368 367 366 366 367 367 367 366
328 330 331 332 335 338 340 343 346 348 347 348 348 349 354 355 353 355 358 357 357 357 355 355 354 354 354 355 356 358 360 361 361 362 340 331 321 313 313 313 316 318 329 346 337 334 331 327 325 324 324 327 337 342 346 345 321 317 320 325 340 346 350 353 355 352 353 353 353 355 357 360 362 365 367 368 365 363 363 363 362 362 362 361 361
328 328 329 330 332 336 339 341 345 348 348 350 349 351 352 352 356 355 355 357 357 355 355 356 355 354 354 355 357 358 360 360 361 361 361 355 348 337 324 324 316 316 327 340 338 346 345 341 345 334 335 333 334 337 339 341 341 334 334 337 343 348 350 353 355 356 354 356 356 358 359 362 365 365 363 363 361 362 364 361 360 360 361 360 359
326 327 328 329 329 331 335 337 339 341 346 351 349 348 350 354 356 356 355 357 358 357 356 355 355 356 356 356 357 358 358 360 361 361 360 360 357 354 344 338 337 335 336 341 346 350 353 342 340 351 352 352 350 350 351 354 353 349 348 346 346 348 349 350 353 358 359 359 359 361 360 363 360 360 359 359 359 360 362 360 358 358 357 358 356
325 326 328 328 328 330 332 333 335 337 338 340 344 347 348 350 356 359 362 362 363 362 359 358 359 360 360 359 358 357 359 360 361 340 361 338 354 358 354 347 346 344 335 327 347 351 353 353 354 353 352 351 351 353 353 354 354 356 356 355 353 353 353 353 353 354 356 356 356 358 359 360 359 359 357 357 358 357 360 358 359 356 358 358 354
324 325 327 326 326 326 327 329 331 333 335 334 335 340 340 327 334 350 354 345 335 331 332 359 363 363 362 362 364 361 360 363 339 324 322 322 320 324 329 328 326 338 330 320 336 349 350 350 352 352 353 353 352 351 352 354 355 355 356 345 354 355 354 353 354 355 358 356 358 357 357 358 359 359 358 356 355 356 357 349 356 357 353 352 351
323 323 324 326 324 324 326 327 328 329 330 331 333 333 336 341 319 316 320 329 329 320 314 318 322 327 355 363 358 336 334 332 328 318 314 315 314 313 314 314 314 315 318 332 339 344 349 349 350 352 352 353 353 352 353 354 355 355 356 357 356 356 352 355 355 354 354 354 357 357 357 359 357 358 355 353 354 355 356 354 353 352 351 350 348
320 321 322 323 325 326 326 326 326 325 325 327 328 330 333 336 341 327 320 319 316 313 312 312 313 316 318 331 353 368 335 319 318 312 309 311 311 311 310 309 309 309 310 318 343 344 347 350 351 352 352 352 352 353 354 355 356 357 357 356 356 356 356 355 356 358 356 357 357 356 356 353 353 353 352 353 350 351 351 348 346 346 347 349 348
319 320 321 323 324 325 325 323 323 323 322 323 324 327 329 332 335 340 343 323 316 308 310 311 310 310 312 310 310 320 331 331 315 310 308 307 307 308 309 307 306 303 308 332 345 348 349 350 351 354 354 352 354 355 355 356 356 357 358 358 357 358 359 361 360 360 358 357 357 355 353 353 351 350 347 348 348 347 348 346 346 346 345 344 345
319 320 321 324 323 322 321 321 320 321 322 322 323 327 329 331 332 335 337 341 347 334 313 305 305 307 305 305 310 309 308 309 310 309 306 307 305 306 306 317 302 302 317 342 345 348 350 351 351 352 354 355 355 355 355 356 358 358 359 359 360 362 364 366 363 357 354 353 353 352 352 352 349 348 348 348 348 346 345 343 345 344 343 343 343
319 320 322 323 322 320 320 320 320 320 320 322 323 325 325 328 330 333 337 339 340 341 347 356 324 305 325 317 306 304 306 306 306 307 305 304 304 303 307 330 327 325 325 338 346 348 349 351 352 352 354 355 355 355 356 357 357 357 358 360 361 361 364 363 359 357 354 353 352 351 350 351 351 348 347 347 346 344 342 342 343 344 343 343 343
319 318 318 318 318 318 318 319 320 319 320 321 323 324 326 328 329 333 334 338 340 341 344 349 353 332 307 307 309 306 302 302 304 305 305 303 303 307 336 339 340 339 335 335 340 345 349 352 353 354 355 355 357 358 357 357 358 359 360 359 357 360 362 361 356 355 353 353 351 350 345 349 349 348 348 347 347 345 345 344 343 343 343 344 345
318 317 317 317 317 317 318 319 319 320 320 320 322 323 324 326 328 331 335 339 338 340 342 345 348 351 331 338 320 307 303 303 302 302 304 303 301 322 344 347 347 348 344 342 341 344 347 350 353 355 356 356 356 356 357 357 358 360 350 360 361 361 361 361 359 353 352 350 351 350 350 351 350 349 347 345 344 345 346 345 346 344 344 341 337
317 317 316 316 316 317 318 318 318 319 321 321 322 321 322 324 325 328 329 332 336 339 340 343 340 344 345 350 341 339 320 303 301 303 301 300 312 329 339 345 349 351 350 350 347 347 348 352 354 354 356 357 357 357 357 358 358 359 359 361 361 360 346 356 351 356 355 353 351 351 349 350 351 350 345 344 344 344 345 345 344 344 342 337 339
317 316 314 314 315 317 316 317 318 319 318 318 319 320 320 321 322 323 324 325 328 332 338 343 344 343 345 349 348 336 330 334 334 336 331 330 331 335 340 344 349 351 353 355 354 349 350 351 352 355 356 357 357 358 359 358 360 359 360 359 359 359 357 356 354 354 353 352 351 351 350 350 350 349 348 345 344 345 345 346 345 345 341 337 338
315 315 315 315 316 316 316 317 317 316 317 316 316 318 318 319 319 319 320 321 322 325 328 332 337 342 346 349 348 344 344 344 343 345 345 341 337 337 340 342 346 348 351 354 356 355 352 353 354 354 355 357 358 359 363 359 355 355 357 357 357 356 357 356 354 353 353 353 353 352 351 350 350 349 348 348 346 347 347 346 344 343 342 340 339
314 314 316 315 314 314 315 316 315 314 314 315 315 315 316 317 317 318 318 318 319 321 323 326 330 335 336 322 317 326 347 346 347 347 348 349 349 345 342 342 344 346 348 349 354 357 357 355 355 355 356 356 359 357 351 349 348 348 348 349 352 354 355 356 354 353 352 352 351 350 350 350 349 348 345 347 339 342 345 344 341 341 340 340 340
313 313 314 315 315 314 313 313 313 313 312 313 313 313 314 314 314 314 315 316 317 318 318 321 324 326 317 304 303 302 331 346 347 347 349 350 351 352 351 350 348 347 346 348 351 352 354 355 355 354 353 354 354 351 349 349 349 348 349 350 351 351 350 352 353 353 351 350 350 348 348 347 346 345 345 334 344 344 344 342 340 339 340 340 339
314 313 314 315 314 312 312 311 311 311 311 311 312 312 313 312 312 312 313 314 315 315 316 316 317 318 317 307 308 308 326 337 340 342 342 340 336 327 322 320 321 325 329 331 331 333 339 347 350 350 349 349 349 348 349 350 351 349 348 349 350 350 348 347 348 348 349 349 347 345 346 345 342 342 343 341 342 341 340 339 338 337 337 338 337
313 313 313 313 313 312 312 310 310 310 310 310 311 311 311 310 310 311 311 311 311 312 311 312 312 312 312 311 310 312 314 314 313 312 311 311 310 310 309 309 309 310 311 311 312 315 320 328 334 334 331 332 335 338 343 348 350 349 349 349 346 343 345 344 345 345 345 344 343 343 344 343 341 342 340 339 341 339 338 337 336 335 336 337 337
310 311 311 311 311 310 310 310 309 309 308 309 308 308 309 308 308 308 308 308 309 308 308 308 308 307 307 307 307 307 306 306 306 305 304 304 303 304 304 305 305 305 305 306 307 309 310 311 313 315 317 317 316 317 319 323 328 336 345 348 347 344 345 346 346 344 342 341 340 339 341 340 340 342 342 340 337 337 336 336 335 330 332 333 334
309 310 310 310 309 309 309 308 309 308 307 307 307 307 307 307 307 306 306 306 306 306 305 305 305 305 304 304 304 304 303 303 302 302 302 301 301 302 302 303 303 303 303 303 304 305 305 306 306 307 307 307 307 308 309 311 313 316 318 323 332 342 345 345 343 340 339 339 339 339 339 337 339 339 338 338 337 338 338 336 334 333 333 332 332
308 308 309 309 307 307 308 307 307 307 306 306 306 305 305 305 305 305 305 305 304 304 303 302 302 302 302 301 301 301 301 301 300 300 300 300 300 300 301 301 301 301 301 302 302 302 303 303 304 305 305 305 306 306 306 307 308 309 312 314 316 322 328 331 334 335 335 336 337 336 334 332 330 330 332 333 333 334 331 331 330 330 329 328 328
307 307 307 308 307 306 306 305 305 306 305 305 305 305 304 304 303 303 302 302 302 302 301 301 301 300 300 300 300 300 299 299 299 299 298 298 298 299 299 299 299 299 299 299 300 300 301 301 301 301 302 302 303 303 304 304 305 305 306 308 312 316 317 315 327 329 330 330 332 331 330 329 328 327 327 328 328 328 326 324 324 323 323 321 321
306 306 306 306 306 304 304 304 305 304 304 304 304 303 303 302 302 301 301 301 300 300 299 299 299 299 299 298 298 299 299 298 297 296 296 296 297 297 297 297 298 298 298 297 298 299 299 300 301 301 300 300 301 301 301 301 301 302 303 303 302 299 301 308 316 323 318 325 325 325 324 324 323 322 323 323 322 322 321 322 320 319 319 319 319
305 306 305 305 304 304 304 304 303 303 304 304 303 302 302 301 301 300 300 299 298 298 298 298 298 298 297 297 297 297 297 296 296 296 296 296 296 296 296 296 296 296 297 297 297 298 298 299 300 300 301 301 300 300 299 299 299 300 299 297 294 293 294 297 300 305 315 318 319 319 319 318 318 318 318 317 316 315 315 316 317 318 318 318 316
304 304 304 304 303 303 303 302 302 303 302 302 302 301 300 300 300 300 299 298 297 297 297 297 297 297 297 297 298 297 296 296 296 296 296 296 296 296 296 296 296 296 296 296 297 298 298 299 300 301 301 301 301 301 300 299 299 297 295 294 293 293 293 297 305 298 302 306 314 314 314 313 312 312 313 314 314 314 312 313 314 314 314 314 313
Wind_Speed
15 13 13 14 14 14 14 12 13 11 11 11 11 10 10 10 10 9 7 8 7 8 8 7 7 7 7 7 8 7 7 7 6 6 6 6 6 5 5 5 5 5 4 4 4 4 5 4 4 3 2 3 3 3 3 2 2 2 2 2 3 3 3 3 5 6 4 1 3 4 4 5 5 3 6 6 6 5 6 5 5 5 5 4 5
15 14 13 13 15 14 15 13 13 12 13 12 13 11 11 10 10 9 10 9 8 9 9 8 8 8 8 8 7 7 7 7 7 7 7 7 7 5 6 6 6 6 5 5 5 4 4 5 5 4 3 3 3 4 4 4 4 4 3 3 3 3 3 4 4 5 7 4 3 3 4 2 5 3 5 7 7 6 7 6 5 5 5 5 5
15 14 14 13 15 14 14 13 13 14 15 13 14 14 12 11 10 10 11 9 9 9 9 9 7 8 8 7 7 7 7 8 7 7 7 8 8 7 6 6 7 7 6 6 6 5 5 5 6 5 3 4 4 4 4 4 4 4 5 4 4 4 3 4 4 6 7 7 4 5 4 4 5 5 5 5 5 5 6 6 6 5 4 5 5
15 14 14 15 15 15 14 14 15 15 15 14 15 15 13 12 11 11 11 10 9 9 9 9 8 8 8 8 8 8 8 8 7 8 8 8 8 8 7 7 7 7 8 7 7 6 7 7 7 6 5 5 5 5 4 5 4 4 5 4 4 5 4 3 5 6 6 8 6 5 5 6 5 4 4 4 5 4 5 5 5 5 6 5 5
14 15 16 16 16 15 16 15 15 16 16 14 16 15 14 12 11 12 11 11 11 9 9 9 9 9 9 10 9 9 9 8 8 8 8 8 8 8 8 7 8 8 8 8 8 8 7 8 8 7 6 6 6 6 5 6 5 5 5 4 5 5 4 4 5 5 6 7 7 5 4 5 5 4 3 5 5 5 4 4 4 5 4 6 5
14 15 15 16 15 17 16 15 16 17 16 16 16 15 14 13 12 11 12 12 11 11 10 9 9 10 10 10 10 9 9 9 9 9 9 9 8 8 8 8 8 8 9 9 9 8 8 8 8 8 8 8 7 6 6 6 5 6 6 5 5 4 5 5 5 5 6 7 7 7 5 5 5 4 3 3 6 7 6 4 4 3 3 5 6
14 14 15 16 15 16 16 16 15 16 16 15 14 13 14 14 13 13 12 13 12 12 12 12 10 10 11 10 10 10 9 9 9 9 9 9 9 8 9 9 9 8 9 10 10 9 9 9 8 8 9 8 8 8 7 7 6 7 6 6 5 5 6 5 5 6 6 7 7 6 6 5 4 6 2 2 5 5 6 6 5 2 1 3 6
13 13 14 14 14 15 16 16 15 15 14 13 13 13 13 13 13 12 11 13 13 13 13 12 11 11 11 10 10 9 9 9 9 9 9 9 9 9 9 10 10 10 10 10 10 10 10 10 10 9 10 9 9 8 7 7 6 6 6 5 5 6 6 6 6 6 6 7 7 7 6 6 5 4 4 3 4 4 3 4 7 7 5 2 3
13 14 13 14 14 14 13 13 13 13 13 12 13 13 13 13 12 12 11 12 11 13 13 12 11 11 11 11 11 10 10 10 9 9 10 11 10 10 10 10 10 10 10 10 10 10 10 10 10 11 10 10 10 8 7 5 6 6 6 6 6 6 6 6 6 6 6 6 7 6 6 6 5 5 5 4 4 5 4 4 6 6 5 5 2
13 14 15 15 14 13 12 12 12 13 13 13 13 14 13 13 13 13 13 13 12 11 11 12 12 12 12 11 11 10 9 9 11 15 12 10 10 10 10 10 11 10 10 10 10 10 11 11 10 12 10 10 11 11 11 11 10 10 7 6 6 6 7 7 7 6 6 7 7 7 7 7 6 5 6 5 5 5 6 5 6 6 5 5 4
13 15 16 15 14 13 12 12 11 12 13 13 12 13 13 12 12 12 12 12 13 11 11 12 13 13 13 12 12 11 10 10 15 16 16 16 12 10 10 10 10 10 11 10 10 11 10 10 10 10 11 11 11 13 12 13 13 14 13 11 8 7 7 8 8 7 7 7 7 7 7 7 7 7 7 6 5 6 6 5 6 6 5 6 7
14 14 15 13 13 12 12 13 12 12 12 12 12 13 12 12 12 12 12 13 11 12 12 13 13 13 12 13 14 13 12 13 16 16 17 18 16 12 11 10 10 10 11 12 11 10 11 10 9 8 9 11 10 10 12 14 15 14 15 14 13 13 12 10 8 8 8 8 7 7 7 8 7 6 7 6 5 5 5 6 5 6 6 6 6
13 13 13 12 12 12 12 13 13 12 12 13 12 11 12 13 13 13 15 14 12 12 14 13 13 13 13 13 14 15 14 14 16 17 17 17 18 15 12 11 11 12 11 12 12 11 9 9 9 8 8 11 10 11 9 9 14 17 15 14 14 14 14 15 14 12 9 9 9 9 8 7 8 8 7 7 5 7 6 6 6 6 6 7 6
13 14 12 11 11 12 13 13 13 14 13 12 12 12 13 14 15 14 13 12 12 13 15 14 13 13 14 14 13 14 15 14 16 18 18 18 18 15 13 14 13 13 12 12 11 11 11 10 10 9 9 9 9 11 10 10 8 8 10 10 10 13 15 16 16 16 14 12 11 10 9 8 9 8 8 6 7 8 7 8 7 6 7 8 8
9 11 11 12 12 12 12 12 13 13 13 12 12 13 14 13 14 13 13 13 13 13 14 14 14 14 15 15 14 15 15 17 16 18 19 19 18 14 11 13 13 13 12 12 12 12 12 11 11 12 10 10 9 10 11 10 9 8 9 10 10 11 11 11 12 11 11 12 13 13 12 10 9 10 9 7 8 8 8 8 8 7 7 8 8
10 10 12 11 13 12 12 12 13 12 12 12 13 14 14 13 14 13 13 13 13 12 12 13 14 15 15 16 15 16 16 17 17 18 19 19 17 10 11 12 13 13 13 13 12 11 12 12 11 12 12 12 11 14 12 10 9 10 10 10 10 10 10 11 12 11 11 10 11 11 11 10 8 9 8 7 7 7 7 7 8 7 6 6 7
11 14 10 10 11 10 11 12 12 13 13 13 14 15 14 14 14 12 13 14 14 14 14 15 14 15 16 15 16 16 16 16 18 19 19 19 13 10 11 11 12 14 13 13 12 12 12 12 12 11 12 12 12 14 15 13 11 11 11 11 10 10 10 9 13 16 15 14 13 12 11 12 12 12 12 11 9 7 7 9 9 7 6 7 7
10 10 10 10 7 10 11 12 12 12 12 13 15 15 15 14 14 12 14 15 15 15 14 14 14 15 17 17 17 17 17 17 19 19 20 19 16 12 10 11 12 12 12 13 12 11 13 16 15 13 13 13 14 15 16 13 12 12 12 12 12 11 10 10 8 9 17 17 16 15 15 14 14 13 13 13 10 5 8 10 9 6 8 7 8
9 10 10 10 10 6 10 12 13 13 14 15 15 15 14 14 13 12 13 14 14 13 13 13 14 14 16 18 17 18 17 16 18 20 21 20 17 11 11 11 11 12 12 12 12 12 12 13 18 16 14 15 16 15 16 14 13 13 13 12 12 12 11 10 10 7 6 7 8 9 9 12 11 10 11 16 13 11 10 11 9 8 8 8 7
10 9 11 11 11 9 7 10 12 14 16 16 14 14 12 11 12 11 12 12 13 13 13 13 15 14 14 16 15 17 18 16 14 20 20 20 21 13 11 11 13 14 13 12 11 12 12 12 13 19 20 18 16 16 17 18 14 13 12 12 12 13 11 10 9 8 8 8 8 8 9 8 8 8 9 9 10 12 12 11 10 9 8 8 8
12 10 9 10 11 11 8 8 11 14 14 13 13 13 12 12 12 12 13 13 13 13 15 14 14 14 13 14 15 16 15 17 15 20 20 21 22 19 11 14 14 13 12 12 12 12 12 12 12 15 21 21 19 18 17 18 17 13 13 12 13 12 8 9 9 9 9 9 8 8 8 8 8 8 8 8 8 9 10 11 10 9 8 9 9
11 11 11 9 10 10 9 8 7 8 11 11 12 12 11 11 11 12 12 12 14 14 14 13 13 14 13 14 14 15 15 16 14 16 21 22 22 24 15 15 15 13 13 12 13 13 13 12 12 13 18 20 20 18 18 17 19 12 14 16 15 13 11 10 9 8 7 7 8 8 7 7 8 8 8 8 8 8 9 9 10 10 10 10 10
11 11 11 11 9 9 9 9 8 6 7 10 13 13 12 13 13 11 11 12 13 14 14 13 13 13 13 12 12 14 14 12 17 13 18 21 22 23 24 18 16 14 14 14 14 14 12 12 12 12 15 18 19 19 18 19 14 13 18 17 16 16 11 9 9 9 9 10 10 10 10 10 9 8 8 8 8 9 9 9 9 9 10 10 11
11 11 10 10 9 8 8 8 7 7 9 8 6 9 12 9 10 11 13 14 15 14 12 13 14 15 14 13 12 13 12 12 13 18 15 21 21 23 24 23 18 15 15 15 14 13 12 12 11 14 15 17 18 18 18 17 13 18 19 19 18 13 7 9 9 9 10 11 12 11 11 10 9 8 8 8 9 8 8 8 9 10 10 9 10
11 11 11 11 10 9 8 7 7 7 9 8 8 7 7 9 12 14 15 16 17 18 18 17 17 17 17 15 14 12 13 12 12 14 20 19 22 22 23 23 22 20 16 16 15 13 12 14 13 14 14 15 17 17 15 17 20 19 19 19 15 7 9 9 10 9 12 12 12 12 11 10 9 9 8 7 6 6 7 7 8 9 9 10 10
10 10 10 11 11 10 11 9 8 9 9 8 9 8 6 8 11 11 13 15 16 15 16 17 17 17 18 18 16 13 12 11 12 10 12 16 17 20 23 23 23 23 21 17 18 17 14 12 15 16 15 14 10 8 8 10 17 19 17 12 7 9 9 10 10 12 14 13 12 11 10 8 8 8 7 7 7 8 7 7 7 8 8 8 8
9 8 10 11 12 11 10 8 8 8 8 7 7 7 7 9 9 10 13 14 16 17 16 14 17 17 17 17 16 15 13 12 11 11 9 10 10 12 14 14 19 18 15 13 14 11 12 11 10 12 12 14 14 11 12 11 10 9 8 9 10 10 10 10 11 11 11 10 10 9 9 8 7 6 7 7 8 8 8 8 8 8 7 9 9
9 9 10 10 9 10 9 13 13 10 9 8 8 8 7 8 9 11 14 15 16 16 16 17 17 18 17 16 15 15 14 12 12 12 12 11 11 12 12 11 11 11 12 11 11 13 13 12 13 9 8 7 8 8 9 9 10 10 9 9 10 11 12 13 11 10 11 11 10 9 8 7 8 8 8 8 9 8 7 7 8 8 8 9 9
8 9 8 8 9 8 8 9 9 10 11 10 8 8 8 9 8 9 14 12 13 14 16 17 17 18 17 16 15 15 13 13 13 13 13 14 13 11 11 11 10 10 15 16 11 9 10 11 11 11 11 11 11 11 10 10 10 11 11 10 9 10 10 10 11 12 12 11 12 12 10 8 9 8 8 8 8 8 9 9 8 9 8 9 9
8 7 6 7 7 8 8 8 9 9 10 11 12 10 10 11 11 11 13 16 16 18 15 16 16 14 16 16 13 13 13 11 9 14 15 13 13 14 13 13 14 12 14 17 11 8 10 12 13 13 12 12 12 12 12 11 11 11 11 12 10 10 11 11 11 11 10 10 10 10 9 9 9 8 7 9 10 10 9 8 7 6 8 9 9
7 7 7 5 7 8 7 8 8 9 10 11 10 12 13 12 13 16 17 18 20 19 18 21 18 13 13 15 14 13 13 8 6 12 15 16 16 16 16 15 15 16 9 11 8 11 11 12 13 13 13 13 13 13 12 12 11 11 11 11 11 12 11 11 11 10 10 10 10 10 9 8 9 8 10 11 10 9 7 5 7 8 9 9 9
7 7 7 7 7 7 7 7 7 8 9 9 9 10 11 13 13 13 15 17 18 20 19 19 19 20 20 16 14 11 13 16 13 12 15 16 17 17 17 16 15 15 15 16 9 11 12 12 12 12 12 13 13 12 12 12 11 11 11 11 11 11 12 12 11 10 10 10 10 9 9 11 12 11 11 10 9 9 8 9 8 9 11 10 9
7 7 7 7 7 8 8 8 7 7 8 9 8 8 10 11 12 12 11 13 16 16 18 19 19 20 20 18 16 16 13 10 16 15 14 14 15 16 16 16 12 10 13 9 12 11 11 11 12 11 11 12 12 11 11 12 11 11 11 12 12 11 11 12 11 10 10 10 9 11 11 12 11 11 10 10 9 10 9 9 9 9 9 11 10
8 8 6 7 7 6 6 6 7 6 7 8 9 9 8 9 11 11 11 10 10 10 11 15 16 14 15 16 18 18 17 15 10 11 14 14 14 15 13 5 9 15 15 12 11 12 11 11 12 12 12 11 11 11 11 11 11 11 11 11 12 11 10 9 10 10 11 11 13 14 12 12 11 10 11 11 10 9 9 9 9 10 10 11 11
8 10 14 10 6 5 5 6 7 7 7 7 8 9 10 9 10 11 9 9 8 8 8 7 9 15 14 13 16 18 18 17 13 9 9 11 10 8 12 6 5 4 6 8 10 10 11 11 11 11 11 11 11 10 11 11 11 11 11 11 11 11 10 10 10 10 12 12 13 13 12 13 13 12 11 10 10 9 10 9 9 10 10 10 11
8 6 5 8 7 7 6 6 6 7 7 7 9 10 9 10 11 10 10 10 8 8 7 6 7 3 13 15 13 10 12 13 13 12 11 11 13 17 8 7 7 7 9 10 11 12 12 13 12 11 10 11 10 10 11 11 11 11 11 11 11 11 10 11 11 11 12 13 13 13 12 12 12 11 11 10 12 11 10 11 10 11 12 12 12
7 8 7 6 7 7 7 8 8 7 8 7 8 9 10 10 10 10 10 9 9 9 8 7 6 6 4 5 10 9 10 9 10 8 8 8 15 12 9 9 9 10 10 10 11 11 12 12 12 11 11 11 11 11 11 11 11 11 10 10 10 10 11 10 10 11 13 13 13 13 14 13 12 12 11 11 11 11 11 12 11 11 11 12 10
8 8 7 8 8 8 7 6 7 9 7 6 6 7 9 9 9 9 9 10 11 10 10 9 7 7 7 4 3 1 3 5 9 7 6 8 8 8 8 9 10 11 11 11 11 11 12 12 11 12 12 12 12 12 12 11 10 11 10 10 10 11 12 10 12 12 12 13 13 13 12 12 11 10 10 11 12 12 11 11 12 11 10 11 10
7 8 9 12 11 9 7 6 6 6 7 6 6 8 10 9 9 7 7 7 8 10 10 10 10 9 7 6 1 5 6 2 3 4 6 6 7 8 9 9 11 11 12 11 9 10 11 11 11 11 11 11 11 11 11 11 9 10 11 11 12 12 12 12 14 14 14 14 12 12 11 11 10 11 11 12 12 12 12 11 11 10 9 9 11
8 7 8 10 8 7 8 7 5 5 6 6 6 7 9 10 9 10 10 10 9 8 8 9 10 9 8 8 6 3 4 5 6 6 7 7 7 8 8 8 9 10 11 11 10 9 11 12 11 10 11 11 11 10 5 5 7 13 13 13 13 13 13 12 13 14 13 12 10 10 12 13 11 10 11 12 12 10 10 9 9 9 9 8 8
7 8 8 7 6 7 8 6 5 5 6 6 6 7 8 9 10 9 9 9 9 9 9 9 9 9 10 14 14 5 7 7 6 7 7 8 8 8 7 7 8 8 9 9 9 8 8 9 9 9 10 10 10 7 7 10 11 12 11 11 9 9 10 10 12 13 13 11 12 13 13 12 9 10 11 10 8 8 7 7 8 9 8 8 8
8 7 7 6 5 6 7 7 6 6 5 5 5 6 8 8 8 8 8 8 8 8 9 8 7 6 8 13 15 13 8 8 8 8 8 8 8 9 7 7 8 9 8 9 9 9 8 7 7 7 8 8 8 9 10 10 12 10 10 10 11 13 13 14 13 11 13 12 13 13 12 11 11 10 9 8 9 10 9 8 8 8 9 9 9
8 7 7 7 6 5 6 6 7 6 5 4 5 6 7 8 8 8 8 8 9 9 8 8 7 6 6 9 11 10 3 5 6 6 6 6 5 6 6 6 5 5 5 5 5 5 4 5 7 7 8 9 9 11 11 12 11 12 12 12 11 11 12 13 12 13 14 12 12 13 13 12 10 9 11 10 10 8 9 9 9 9 9 9 9
7 7 6 6 5 5 5 5 6 6 6 6 5 4 5 6 7 7 8 9 9 9 9 8 8 8 8 9 9 8 7 7 6 6 6 6 6 6 6 6 6 6 5 5 5 6 6 6 6 5 3 4 4 4 6 9 12 14 13 12 12 13 13 13 12 12 12 12 12 11 11 12 11 11 10 10 11 10 10 10 10 9 8 9 9
6 6 6 5 4 4 5 4 5 5 6 6 5 5 6 7 7 7 8 8 9 9 8 8 8 8 8 8 8 8 8 7 7 7 7 7 7 7 7 7 7 7 7 7 7 6 6 6 6 6 5 4 5 4 4 5 5 6 7 10 12 13 14 14 12 9 6 6 5 6 7 8 10 11 12 11 9 10 9 10 10 10 9 8 8
6 6 6 5 4 4 4 4 4 4 4 4 4 4 5 5 6 6 6 7 8 8 8 8 7 7 7 8 8 8 8 8 8 8 8 8 7 7 7 7 7 7 8 8 8 8 7 7 6 6 6 6 6 6 6 6 6 5 4 6 8 11 13 11 9 10 11 10 9 9 10 11 11 10 9 9 9 9 8 8 8 8 8 9 8
6 6 5 5 4 4 4 4 4 4 4 4 4 4 4 5 5 5 5 6 7 7 8 7 7 7 7 7 7 8 8 8 8 8 8 8 8 7 7 7 7 8 8 9 9 8 9 9 8 8 7 7 7 8 7 7 7 7 7 5 5 6 4 3 7 8 9 11 13 12 11 10 8 8 7 5 3 3 4 5 7 8 6 6 5
6 5 5 4 4 4 4 4 4 4 4 4 4 4 4 4 5 5 5 5 6 6 7 7 7 7 7 7 8 8 8 8 8 8 8 8 8 8 9 9 9 9 9 9 9 9 9 9 9 9 9 9 9 9 8 9 7 7 8 8 7 5 4 6 7 8 9 9 11 13 14 12 11 10 10 11 9 7 6 6 6 6 7 7 7
5 5 4 4 3 3 4 4 4 4 4 4 4 4 5 4 5 5 5 6 6 6 6 7 7 6 7 7 8 8 8 9 9 9 9 9 9 10 10 10 11 10 10 10 10 11 11 11 11 10 11 10 11 12 11 10 10 9 9 8 13 19 4 2 3 7 10 11 9 10 10 11 12 11 10 10 9 8 8 7 7 7 8 9 9
4 4 4 3 3 3 3 4 4 4 4 3 4 4 5 5 5 5 5 5 6 6 6 6 7 6 7 7 8 8 8 8 8 8 9 9 9 9 9 9 10 10 11 11 10 9 9 9 11 11 12 12 12 11 12 11 10 9 9 12 21 21 18 10 10 11 6 4 8 9 12 11 11 10 10 10 10 11 10 8 7 8 8 9 8
4 4 3 3 2 3 3 3 4 4 4 4 4 5 5 5 5 5 5 6 6 6 6 5 5 6 6 7 7 7 8 8 7 7 8 8 8 9 9 9 9 8 9 9 9 9 9 9 10 11 10 10 11 11 11 12 10 11 16 21 22 23 23 18 11 14 16 11 9 10 10 11 12 12 11 10 9 9 10 10 8 8 8 8 8
Wind_Direction
191 192 190 195 194 193 196 197 201 201 202 197 200 201 200 201 205 211 199 209 208 210 211 211 207 206 212 210 210 202 198 198 198 203 209 218 224 232 238 222 226 235 230 233 228 218 222 230 239 233 228 249 249 255 259 247 219 229 219 212 230 214 230 248 283 296 295 222 289 306 324 317 324 325 327 334 336 343 324 328 324 337 337 333 328
192 190 191 194 196 196 200 199 200 201 203 200 203 204 203 200 199 194 203 206 205 214 215 213 208 206 212 212 210 209 201 200 205 204 211 216 224 222 226 227 229 233 229 232 223 226 219 224 235 232 206 238 251 258 257 263 255 254 225 238 248 242 210 256 274 288 301 295 297 318 303 281 312 324 328 330 334 330 330 327 334 342 343 330 327
193 188 188 189 193 196 197 199 197 200 203 205 207 209 206 204 195 199 207 207 202 211 215 217 207 204 213 214 209 212 208 207 208 209 211 216 223 230 230 229 234 239 234 230 232 227 227 230 240 235 216 229 234 253 258 259 268 273 274 267 270 271 224 226 265 283 298 305 305 306 314 311 306 315 319 315 310 305 311 327 332 338 331 328 330
191 188 189 194 194 194 195 199 199 200 205 208 210 211 210 206 199 204 206 208 203 203 211 213 207 204 212 215 215 217 213 213 214 212 214 217 222 224 227 229 238 241 244 245 238 230 236 244 249 244 233 238 246 254 253 255 252 249 252 252 253 267 263 227 238 270 287 294 299 300 310 308 303 301 308 305 301 306 309 319 311 323 332 335 332
193 191 192 196 196 198 200 199 200 202 205 208 210 210 210 208 202 206 207 210 208 202 201 206 208 204 211 213 214 215 216 214 215 221 221 221 222 226 227 226 232 237 241 241 240 238 238 243 250 247 237 243 247 246 248 241 245 249 255 249 244 249 245 242 248 246 265 279 291 288 290 286 286 290 298 316 316 305 297 286 318 317 319 328 330
196 193 194 197 198 200 200 200 201 202 204 208 209 208 208 208 205 203 207 208 204 205 202 203 205 206 209 212 212 213 212 210 213 220 224 223 221 226 227 228 232 234 237 239 239 236 239 240 240 242 244 243 249 247 244 241 240 244 246 248 250 247 246 247 243 247 258 269 278 288 275 292 301 293 295 303 314 316 313 293 263 265 310 327 342
194 193 195 198 199 201 199 199 200 202 203 207 208 207 208 208 207 207 205 209 207 208 206 205 205 208 208 209 213 211 209 210 212 216 221 224 224 224 231 231 232 233 236 238 241 241 240 239 236 236 241 241 244 244 239 235 235 243 238 241 246 243 249 248 240 248 255 267 273 271 280 271 271 297 282 276 287 280 297 311 309 273 262 336 332
191 192 196 200 201 202 201 201 201 201 202 201 203 205 206 208 209 207 204 206 212 212 211 207 206 210 212 211 212 210 207 209 210 213 215 218 220 224 226 233 236 236 239 238 240 244 244 242 242 238 236 236 238 241 240 239 234 239 232 230 234 241 252 252 249 252 257 263 269 279 279 285 274 266 272 258 279 269 246 296 308 314 317 304 308
187 194 199 203 204 202 199 200 201 199 197 194 198 202 205 206 205 204 202 208 212 215 216 215 211 211 214 212 213 211 212 212 212 209 210 213 219 225 225 226 231 237 240 242 239 239 243 245 245 243 235 229 229 234 243 243 245 243 234 220 225 233 242 247 249 251 255 262 269 268 269 271 274 277 276 268 276 295 302 286 285 289 297 305 296
187 199 203 206 206 200 196 196 198 199 196 200 200 202 205 206 206 206 209 210 213 212 214 214 215 213 213 213 212 212 213 214 207 204 205 212 213 220 222 224 228 233 236 240 241 239 240 243 246 240 232 224 224 222 225 228 228 244 248 227 222 226 233 243 245 245 251 258 263 270 274 275 280 278 280 278 279 274 278 276 284 303 300 296 296
195 198 207 208 206 200 196 199 201 198 198 199 198 201 205 207 208 208 208 208 211 207 207 214 220 222 221 219 217 216 218 219 210 204 207 211 217 219 219 222 222 225 230 233 237 239 241 239 242 233 222 226 228 223 223 219 221 227 236 241 241 237 241 242 244 244 248 254 260 259 264 273 275 279 277 283 279 280 283 286 289 294 296 306 309
205 205 210 207 202 195 201 205 204 205 201 202 201 198 200 201 204 204 206 210 207 210 214 218 220 222 223 224 224 224 225 220 210 208 208 210 212 221 225 227 227 226 229 231 234 236 238 238 235 235 232 232 236 222 215 217 220 223 228 231 231 235 239 244 251 253 248 254 254 254 264 265 271 268 274 277 279 283 278 280 274 281 288 287 288
211 210 213 207 200 198 202 202 201 204 203 204 202 198 199 204 207 210 213 214 212 209 215 214 215 217 222 224 227 228 231 219 208 209 210 209 209 214 231 232 230 231 229 227 231 233 234 233 235 233 238 217 225 236 236 219 211 219 226 230 234 231 231 235 239 246 257 257 258 260 251 261 264 264 262 265 274 277 282 277 274 276 283 280 277
232 215 211 206 202 203 202 201 204 205 204 202 200 200 203 207 212 212 214 211 209 211 215 216 217 215 217 221 225 229 231 227 204 207 210 210 208 205 227 231 234 235 233 231 231 230 228 229 231 233 233 226 221 226 230 233 230 214 217 225 232 229 225 230 234 237 241 249 255 257 253 242 253 260 261 254 256 268 277 279 281 279 280 280 288
275 237 215 208 209 209 204 202 206 205 203 200 199 202 205 209 211 212 212 210 209 211 215 218 218 217 218 220 225 230 232 226 205 204 208 209 207 199 220 227 234 237 234 232 230 229 229 229 231 236 236 229 221 216 225 226 227 229 230 231 230 235 232 227 223 224 224 230 238 245 251 250 253 257 260 251 251 257 266 277 283 280 281 285 275
340 280 234 216 216 210 207 207 210 210 205 203 202 205 207 206 206 208 213 216 217 217 215 219 221 220 221 223 226 230 234 220 206 204 205 208 201 199 214 222 229 234 235 233 229 226 227 229 231 232 234 235 218 201 214 227 231 231 232 236 239 238 237 231 226 223 229 230 231 238 245 249 250 258 267 271 269 265 268 267 270 266 261 265 269
352 351 321 247 222 211 210 210 212 215 210 207 207 209 209 209 209 207 211 216 217 215 215 214 217 220 221 219 221 228 234 219 203 203 203 203 189 206 211 218 224 230 234 232 230 227 226 226 226 231 232 232 220 197 206 211 232 235 237 240 242 243 242 237 210 212 221 232 241 246 253 258 258 256 258 258 253 276 280 277 265 250 254 260 268
352 340 332 340 293 231 208 208 209 213 214 213 212 214 214 214 213 206 212 216 220 221 218 219 219 220 220 219 217 220 228 221 199 201 200 194 189 201 206 213 222 225 230 230 230 229 226 220 223 227 231 233 218 199 199 197 221 230 234 240 241 241 242 244 245 200 211 223 229 235 240 245 248 252 254 251 234 209 233 247 255 255 261 255 265
326 325 328 314 311 287 228 214 208 207 215 220 221 220 217 216 214 208 214 218 224 226 223 223 222 220 222 223 219 222 232 228 199 199 199 193 191 205 206 211 219 224 225 228 226 229 230 219 215 221 227 230 220 202 195 192 218 224 229 236 241 243 242 245 245 239 199 207 223 224 236 235 237 235 236 233 218 204 221 235 253 251 252 256 262
313 326 325 314 313 304 274 235 218 212 215 219 219 220 218 215 210 207 215 221 226 227 227 226 227 225 223 222 221 221 230 235 204 196 195 194 191 199 205 207 220 222 223 226 226 227 227 230 214 211 220 226 222 207 197 195 212 223 228 234 239 242 243 243 244 244 241 239 251 239 240 237 227 217 224 225 206 202 214 222 232 237 239 248 253
330 332 321 322 320 315 308 270 243 231 224 222 220 222 222 219 217 215 220 223 225 228 229 231 232 234 232 230 230 226 226 228 216 188 195 192 194 196 206 212 216 219 222 222 226 230 228 225 233 204 207 217 221 215 203 200 209 221 225 232 234 242 249 249 243 230 249 252 250 251 250 246 244 247 242 233 225 204 204 212 224 226 227 240 252
332 333 333 321 321 320 315 320 304 251 238 235 231 227 224 225 223 217 224 225 225 226 228 230 233 236 235 233 232 233 228 222 229 189 191 192 193 196 209 216 212 215 219 227 228 231 230 228 226 209 198 208 215 217 212 203 208 217 228 231 236 237 240 247 259 260 253 247 248 248 248 246 246 245 243 239 235 230 222 212 208 217 220 233 242
332 333 333 333 323 315 307 293 290 318 278 243 237 237 237 237 235 228 226 228 229 229 229 230 233 235 237 233 232 231 231 224 216 212 190 193 193 198 208 217 203 209 223 227 227 229 227 227 228 212 195 203 208 213 213 210 204 220 229 232 234 236 235 246 253 254 252 254 257 260 258 257 249 242 238 237 238 234 233 231 218 212 219 228 237
333 333 329 330 320 316 313 312 311 276 265 269 251 243 239 246 253 251 243 236 240 237 233 233 235 238 237 236 233 231 225 229 206 209 196 192 195 199 206 216 210 214 220 232 231 230 227 224 223 214 206 203 207 210 212 204 209 217 223 229 234 234 235 239 239 240 247 255 254 251 250 248 242 240 237 234 239 233 231 233 231 229 229 229 226
334 332 330 325 323 317 315 311 299 282 274 272 251 236 198 197 230 236 241 244 243 242 243 241 239 241 242 239 237 229 226 222 227 200 200 189 196 199 206 209 217 214 219 229 232 233 229 223 221 215 212 209 209 210 212 209 213 219 219 224 226 226 224 230 236 236 246 246 247 248 250 239 236 238 240 241 240 243 237 240 240 241 246 247 245
334 332 328 325 323 318 323 316 292 274 269 261 263 257 233 219 232 237 236 240 241 237 239 241 241 240 241 241 240 235 223 225 226 214 189 195 196 200 204 208 213 215 219 228 225 229 233 220 217 217 218 217 208 206 208 205 210 218 221 214 213 218 220 222 224 235 241 245 242 237 232 232 234 239 237 233 236 238 235 235 232 238 242 240 228
331 330 328 325 326 327 328 318 305 290 268 249 244 243 240 247 242 242 247 242 238 236 234 232 239 240 238 238 239 239 232 224 222 219 199 188 194 198 205 214 216 217 222 233 237 238 234 231 227 220 226 217 214 218 221 215 200 210 213 208 213 214 214 215 219 220 225 229 232 233 232 232 237 235 227 224 233 234 227 227 230 234 227 235 232
330 329 326 327 330 331 328 327 326 317 314 302 285 277 257 242 234 239 244 240 240 238 236 236 237 237 237 236 234 235 232 223 218 214 210 200 197 194 192 193 195 196 210 216 216 224 229 224 226 230 225 228 219 222 223 216 211 203 204 200 207 212 218 221 224 232 234 237 244 244 240 225 227 230 231 232 235 232 221 225 235 240 233 234 232
327 329 329 331 332 332 328 326 319 315 311 301 283 273 273 281 284 264 252 243 242 242 239 237 234 236 238 235 230 229 225 223 219 207 211 204 204 205 196 197 194 198 206 200 197 211 219 227 228 220 220 219 223 225 221 214 214 215 213 206 204 206 208 209 215 221 225 227 234 235 231 227 232 227 228 238 240 245 245 243 237 240 240 235 236
320 319 325 330 332 330 327 321 317 313 308 307 309 303 288 273 267 273 281 280 266 243 239 243 242 237 240 240 230 223 221 224 213 198 206 202 203 205 207 201 202 208 208 189 195 209 214 225 225 224 222 220 224 225 224 220 217 215 216 211 212 214 211 211 218 221 216 215 221 224 230 229 232 225 227 241 249 243 237 230 235 222 232 238 232
306 315 322 327 329 322 317 318 320 312 306 305 307 310 310 300 275 264 259 259 263 265 244 239 247 256 246 249 243 229 246 260 201 187 195 204 204 209 214 212 203 211 160 123 189 214 222 222 224 225 225 226 225 224 222 221 220 217 218 213 213 216 215 219 219 219 218 218 220 226 226 220 229 231 239 239 237 237 228 210 222 229 233 231 229
304 310 317 315 318 320 317 317 318 312 306 304 305 308 306 303 302 296 288 280 266 250 244 242 236 233 238 237 244 246 223 226 219 191 197 200 206 208 212 212 210 194 174 167 184 212 220 224 225 225 223 225 227 224 221 221 219 218 218 219 218 214 212 219 213 211 213 216 220 221 225 238 237 235 233 235 233 233 227 228 222 230 236 237 233
293 296 298 308 318 321 320 322 318 312 303 300 301 300 295 293 295 303 304 301 287 265 251 242 236 237 237 240 239 241 245 222 214 209 204 204 203 209 211 211 202 161 140 174 214 219 221 222 228 228 225 227 226 223 221 221 221 221 219 220 222 215 211 214 206 214 215 221 226 234 231 231 230 228 225 227 226 235 234 233 233 231 229 230 230
299 296 298 305 314 314 313 307 302 299 297 294 293 290 288 291 294 293 295 303 305 285 246 238 243 243 247 240 240 244 250 253 233 211 210 208 202 208 201 168 127 161 178 197 204 221 221 224 225 228 229 229 228 224 221 220 221 222 221 221 223 222 214 205 203 212 226 227 228 233 230 229 222 219 226 226 226 230 231 230 231 234 232 229 231
295 299 304 307 298 297 299 298 294 295 295 297 300 297 291 288 283 283 281 286 290 292 309 288 232 216 227 233 235 237 240 240 234 216 203 206 202 152 119 122 135 180 224 236 223 222 224 224 227 223 223 225 224 220 223 221 220 219 220 222 224 224 221 217 208 213 221 223 225 226 225 225 224 221 220 221 217 215 219 222 226 226 230 231 233
296 294 298 303 305 302 300 292 297 302 303 302 299 291 286 285 289 286 284 278 277 282 287 287 317 289 228 249 254 237 234 240 237 217 208 188 158 144 171 190 192 193 196 205 213 218 222 226 227 226 219 222 220 220 221 224 223 224 225 226 227 225 222 220 216 217 218 222 224 222 222 224 224 220 219 222 219 215 212 211 214 216 218 223 225
294 296 300 298 297 293 293 297 303 301 300 303 301 300 298 297 295 296 293 291 290 290 284 296 301 287 199 221 217 217 211 217 224 222 212 181 167 176 209 203 204 201 201 207 206 214 218 223 222 221 220 219 223 224 224 224 223 224 224 226 231 229 227 217 212 216 219 218 221 220 221 225 222 217 216 220 221 222 220 216 215 212 207 211 206
286 287 295 303 297 290 289 293 298 299 301 305 306 301 296 295 301 302 306 306 305 295 292 294 288 285 292 304 112 147 95 75 94 101 115 121 151 199 210 219 216 212 212 210 199 204 215 222 218 220 224 224 224 222 223 224 219 221 222 218 222 231 227 223 216 220 221 221 222 222 222 225 223 220 213 219 224 224 220 214 215 210 204 202 201
281 286 287 287 286 290 292 292 295 304 306 315 319 313 308 308 308 307 304 302 305 308 307 295 284 281 274 275 217 123 116 151 191 221 189 201 198 205 213 217 223 227 229 225 206 203 218 222 221 219 221 223 224 218 217 219 217 228 223 219 221 222 217 222 231 229 225 226 224 223 219 220 217 215 210 214 221 223 220 214 208 208 188 188 198
291 296 289 284 289 293 293 293 304 307 313 320 321 318 314 317 319 322 324 322 316 313 309 303 301 291 286 277 260 172 211 208 220 228 227 204 208 215 220 224 226 228 229 228 226 212 214 225 222 218 217 219 222 225 196 152 191 227 223 215 214 214 212 212 227 231 228 226 225 222 218 218 213 211 211 218 224 224 224 217 202 198 190 187 189
295 294 294 293 294 295 295 299 307 315 318 317 323 326 321 318 320 323 324 318 316 314 309 307 307 318 341 346 328 263 245 247 239 231 230 228 226 216 208 223 231 240 243 241 238 234 220 225 224 220 225 222 217 193 181 204 222 237 241 246 242 233 222 210 221 228 225 218 220 223 221 218 209 205 213 217 207 214 219 205 200 205 200 194 189
300 297 294 292 289 296 298 304 311 317 316 320 330 333 325 323 322 323 319 317 314 307 304 302 306 316 322 338 347 325 277 260 259 262 259 250 247 244 229 219 225 229 237 245 249 251 252 245 238 236 234 228 213 207 211 217 224 228 231 227 231 238 239 236 231 219 218 212 213 213 213 211 209 203 202 194 198 205 207 197 198 201 206 200 196
301 298 297 295 301 301 301 305 312 313 319 328 338 338 328 324 324 323 321 323 318 316 313 313 313 314 324 348 337 341 313 298 304 300 306 326 347 16 27 21 8 357 340 338 357 344 304 273 253 238 228 217 201 208 213 214 213 215 220 225 223 217 217 221 212 201 203 199 202 203 206 208 198 195 200 196 193 184 187 185 189 197 199 201 200
297 297 292 295 299 301 302 307 309 314 317 328 336 337 334 332 330 335 337 332 327 328 326 329 330 337 342 346 355 12 19 20 26 27 22 22 18 12 8 7 4 4 4 5 357 350 333 314 298 307 338 327 319 290 264 245 236 231 229 225 220 220 226 231 226 216 204 193 195 198 201 206 201 198 199 193 188 183 184 181 183 187 187 191 196
296 293 296 298 300 302 303 309 312 317 323 331 343 347 350 350 346 356 350 336 334 334 334 333 342 351 355 0 8 14 18 22 29 33 35 32 30 23 17 14 16 15 16 13 8 2 2 357 352 351 345 352 351 335 314 306 306 281 263 233 221 222 228 230 229 218 203 195 199 195 208 203 195 198 199 190 181 176 173 173 172 165 162 167 174
301 302 301 303 311 311 318 316 321 322 325 334 349 1 5 357 358 359 352 345 340 340 337 341 349 359 7 14 17 19 23 28 33 34 36 35 33 32 30 29 30 31 29 23 19 20 20 20 16 8 4 353 341 333 326 323 316 303 290 292 257 239 234 231 215 192 185 179 176 178 188 195 195 198 192 180 180 181 173 159 153 157 159 159 164
305 303 305 308 316 322 326 328 328 335 343 346 12 15 18 11 7 4 4 2 354 345 345 348 352 6 18 20 24 27 29 34 35 35 36 36 37 36 34 33 36 40 39 38 34 33 32 33 30 28 20 13 5 1 355 347 336 331 323 303 288 262 256 187 180 166 166 181 179 174 166 162 155 147 162 152 141 129 115 122 127 122 104 108 116
307 308 310 316 325 332 336 339 336 345 358 6 18 19 24 24 18 16 15 15 11 2 359 355 358 11 24 31 34 38 41 38 38 39 39 38 37 34 36 38 38 36 38 39 40 39 39 35 32 29 28 21 18 12 8 7 359 351 341 326 306 291 218 193 172 164 171 174 167 160 156 156 149 146 147 144 137 135 127 121 108 100 100 100 91
315 314 315 322 332 351 354 350 354 356 2 16 22 30 35 32 28 25 28 28 25 24 15 5 3 13 31 37 41 44 48 49 46 46 44 43 44 44 44 42 42 41 41 40 38 40 42 43 44 40 37 33 32 30 23 16 14 8 359 357 339 328 319 128 169 172 168 160 143 138 135 133 132 130 123 114 113 107 97 85 88 94 89 88 95
326 327 324 330 353 9 16 16 9 10 16 24 36 44 43 41 35 35 33 35 40 34 28 20 17 20 31 42 48 50 50 49 48 50 52 53 53 56 56 55 54 54 53 50 45 43 44 45 49 49 47 45 41 36 33 28 21 17 17 10 7 356 349 16 67 67 51 72 116 121 119 114 113 107 103 103 106 104 102 101 99 100 101 102 97
337 351 353 353 4 19 30 28 21 24 25 34 42 48 50 49 46 42 42 46 47 40 35 28 21 21 31 44 54 59 63 64 64 64 62 60 60 61 62 61 60 58 58 57 55 49 44 47 51 55 56 54 52 49 45 43 34 30 32 35 33 23 6 359 27 68 73 73 67 71 80 89 93 94 92 93 92 92 99 100 90 88 87 88 87